This is the latest recevied weather packets stored in our database for station/object KV9E. If no packets are shown the sender has not sent any weather packets the latest 1 day(s).
| Time | Temp. | Humidity | Pressure | Rain* | Wind** | Luminosity | Snow |
|---|---|---|---|---|---|---|---|
| 1778051109 | 18.33° C | 72% | 1007.6 hPa | 0 mm | 1.34 m/s, 231° | 0 W/m² | - |
| 1778050806 | 18.33° C | 72% | 1007.5 hPa | 0 mm | 1.34 m/s, 72° | 0 W/m² | - |
| 1778050503 | 18.33° C | 72% | 1007.6 hPa | 0 mm | 0.89 m/s, 131° | 0 W/m² | - |
| 1778050199 | 18.33° C | 71% | 1007.4 hPa | 0 mm | 0.89 m/s, 106° | 0 W/m² | - |
| 1778049896 | 18.33° C | 71% | 1007.8 hPa | 0 mm | 1.34 m/s, 119° | 0 W/m² | - |
| 1778049592 | 18.33° C | 71% | 1007.8 hPa | 0 mm | 1.79 m/s, 116° | 0 W/m² | - |
| 1778049290 | 18.33° C | 71% | 1008 hPa | 0 mm | 0 m/s | 0 W/m² | - |
| 1778048987 | 18.33° C | 71% | 1007.9 hPa | 0 mm | 1.34 m/s, 170° | 0 W/m² | - |
| 1778048686 | 18.33° C | 71% | 1008.2 hPa | 0 mm | 1.79 m/s, 187° | 0 W/m² | - |
| 1778048382 | 18.33° C | 70% | 1007.9 hPa | 0 mm | 0.45 m/s, 147° | 0 W/m² | - |
| 1778048078 | 18.33° C | 70% | 1008.1 hPa | 0 mm | 0.45 m/s, 159° | 0 W/m² | - |
| 1778047776 | 18.33° C | 70% | 1008.2 hPa | 0 mm | 0.89 m/s, 180° | 0 W/m² | - |
| 1778047474 | 18.33° C | 70% | 1008.2 hPa | 0 mm | 0.45 m/s, 186° | 0 W/m² | - |
| 1778047170 | 18.33° C | 69% | 1008.4 hPa | 0 mm | 1.34 m/s, 184° | 0 W/m² | - |
| 1778046868 | 18.33° C | 69% | 1008.3 hPa | 0 mm | 1.79 m/s, 216° | 0 W/m² | - |
| 1778046564 | 18.33° C | 70% | 1008.3 hPa | 0 mm | 0 m/s | 0 W/m² | - |
| 1778046261 | 18.33° C | 70% | 1008.6 hPa | 0 mm | 0.89 m/s, 181° | 0 W/m² | - |
| 1778045957 | 18.33° C | 70% | 1008.4 hPa | 0 mm | 0 m/s | 0 W/m² | - |
| 1778045656 | 18.33° C | 70% | 1008.3 hPa | 0 mm | 2.24 m/s, 102° | 0 W/m² | - |
| 1778045354 | 17.78° C | 70% | 1008.3 hPa | 0 mm | 0.45 m/s, 147° | 0 W/m² | - |
| 1778045052 | 17.78° C | 70% | 1008.7 hPa | 0 mm | 0.89 m/s, 165° | 0 W/m² | - |
| 1778044749 | 17.78° C | 70% | 1008.7 hPa | 0 mm | 0.89 m/s, 186° | 0 W/m² | - |
| 1778044445 | 17.78° C | 71% | 1008.8 hPa | 0 mm | 0 m/s | 0 W/m² | - |
| 1778044143 | 17.78° C | 70% | 1009 hPa | 0 mm | 0 m/s | 0 W/m² | - |
| 1778043840 | 17.78° C | 70% | 1008.6 hPa | 0 mm | 0.89 m/s, 138° | 0 W/m² | - |
* Rain latest hour (hover to see other rain measurements)
** Current wind speed in m/s (hover to see current wind gust speed)